Résultats de la compétition "Chpt LD de F. C." du 04-03-2007 organisée par le club 9006
     
  Télécharger le fichier CSV.  
     
     

 Circuit "Circuit A"

Licence Nom Prénom Temps CN
précédent
Score sur
la course
Différence
747TINCHANTJohann1:05:43N/A6643N/A
84COUPATVincent1:12:00N/A6063N/A
4445POIRSONThomas1:15:10N/A5808N/A
1518MULLERMarc1:20:50N/A5400N/A
6018FLICOTEAUXEmmanuel1:25:33N/A5103N/A
4298HOUPEAUGilles1:29:52N/A4858N/A
12759SCHAMBERGERPierre1:31:22N/A4778N/A
8518LEGAINClement1:36:35N/A4520N/A
11615ANDRESAugustin1:37:08N/A4494N/A
11875FRANCOISGerald1:37:23N/A4483N/A
10984RIZZOTTOJulien1:39:18N/A4396N/A
17898GAINEFrancis1:40:29N/A4344N/A
302BAGUEREYBaptiste1:50:00N/A3969N/A
8748CHIRAUXAnthony1:50:40N/A3945N/A
12762MARCHANDChristophe2:03:07N/A3546N/A
10998RENAUDBernard2:12:27N/A3296N/A
16683NOEGELENFabian2:18:15N/A3158N/A

  Indice de confiance du circuit (moyenne des différences entre CN et score sur la course des 3 à 10 premiers) : 467




 Circuit "Circuit B"

Licence Nom Prénom Temps CN
précédent
Score sur
la course
Différence
6523WYMEREddie0:53:44N/A5908N/A
736POURREAlain0:57:31N/A5520N/A
1186JANANDPatrick0:58:01N/A5472N/A
9486VERCELLOTTICapucine1:00:05N/A5284N/A
1808GUTSCHENRITTERGuy1:01:34N/A5157N/A
4683MAITREThierry1:04:01N/A4959N/A
1335BEAUDEUXPhilippe1:04:37N/A4913N/A
2372DIETSCHBernard1:06:02N/A4808N/A
13620VIELBrieuc1:09:21N/A4578N/A
2953VUILLEMINMichel1:11:53N/A4417N/A
13217VERCELLOTTILea1:13:57N/A4293N/A
702WYMERIsabelle1:14:00N/A4290N/A
5631BETTINGERJ-Michel1:17:35N/A4092N/A
17076HERLINGJerome1:18:01N/A4069N/A
13331SEILLERFabien1:23:34N/A3799N/A
7967ROUAULTThierry1:24:45N/A3746N/A
745TINCHANTEstelle1:33:31N/A3395N/A
13688FRANCOISAline1:40:46N/A3151N/A
720CLOEZVeronique1:41:15N/A3136N/A
10901RAVENELPhilippe1:42:37N/A3094N/A
364THIERRYGeraldine1:47:56N/A2941N/A
17080SCHAMBERGERDaniel1:51:13N/A2855N/A
4216GROSJEANThierry1:52:06N/A2832N/A
743RIZZOTTOHelene2:04:13N/A2556N/A
12761MARCHANDStephanieN/AN/A0N/A
6534DEMAISONGuyN/AN/A0N/A
17567BEZRaphaèleN/AN/A0N/A
17569SAUSSEREAUCarolineN/AN/A0N/A

  Indice de confiance du circuit (moyenne des différences entre CN et score sur la course des 3 à 10 premiers) : 239




 Circuit "Circuit C"

Licence Nom Prénom Temps CN
précédent
Score sur
la course
Différence
10070BASTINHubert0:42:53N/A4616N/A
5938EGGLIRoland0:45:00N/A4399N/A
2282MORTELLIERBernard0:46:39N/A4243N/A
1710CERINIJ-Michel0:48:51N/A4052N/A
703ABISSEJacques0:50:25N/A3926N/A
320BAGUEREYGilles0:50:56N/A3886N/A
706BACHEREdith0:51:07N/A3872N/A
9924BOICHUTIsabelle0:51:08N/A3871N/A
1086ROBERTChristian0:51:36N/A3836N/A
1017CADEAlain0:51:42N/A3829N/A
738POURREValerie0:52:46N/A3751N/A
353PAPONRoland0:53:42N/A3686N/A
2370CHARLOTPatrick0:56:52N/A3481N/A
2368BENACEKVaclav0:58:12N/A3401N/A
724LAURENTPhilippe1:01:42N/A3208N/A
10260LEBIHANSarah1:01:56N/A3196N/A
740RUAUDAlain1:02:14N/A3181N/A
746TINCHANTJ-Marc1:02:25N/A3171N/A
2952ARMBRUSTERMarie1:09:17N/A2857N/A
11071POINSENOTRoger1:10:24N/A2812N/A
14223FISCHERGuy1:11:49N/A2756N/A
10902RAVENELVeronique1:14:27N/A2659N/A
10903RAVENELManon1:18:19N/A2527N/A
11507LEBIHANMartine1:23:06N/A2382N/A
12523DOREAlexandre1:40:45N/A1965N/A

  Indice de confiance du circuit (moyenne des différences entre CN et score sur la course des 3 à 10 premiers) : 187




 Circuit "Circuit D"

Licence Nom Prénom Temps CN
précédent
Score sur
la course
Différence
17170VUILLEMINGuillaume0:44:43N/A3528N/A
1087ROBERTMartine0:48:16N/A3268N/A
12375ASMUSSENFlorence0:48:53N/A3227N/A
10904RAVENELFanny0:49:59N/A3156N/A
5083VIEILLENicolas0:52:46N/A2989N/A
12102BOUVERETMichelle1:00:10N/A2622N/A
701ABISSEGisele1:00:30N/A2607N/A
363THIERRY-FISCHERChri1:02:14N/A2535N/A
1021DELERCERaymond1:03:38N/A2479N/A
18198HOFFMANNCatherine1:07:53N/A2324N/A
2547DESAINTJANClaude1:12:04N/A2189N/A
739RUAUDAgnes1:14:41N/A2112N/A
3185PASCAUDClaire1:31:10N/A1730N/A
15538DOREIsabelle2:10:38N/A1208N/A
17683BRENETMathiasN/AN/A0N/A

  Indice de confiance du circuit (moyenne des différences entre CN et score sur la course des 3 à 10 premiers) : 427




 Circuit "Circuit E"

Licence Nom Prénom Temps CN
précédent
Score sur
la course
Différence
17625MERCIERSylvie0:47:39N/A2759N/A
10077POURREMarion0:48:05N/A2734N/A
10042DEMAISONAnais0:54:51N/A2397N/A
725LAURENTTherese0:56:52N/A2312N/A
11508LEBIHANBarbara0:57:09N/A2300N/A
11748STRIBEAUMelanie1:00:54N/A2158N/A
2546DESAINTJANAlice1:07:27N/A1949N/A
16648JANANDPierre-Louis1:25:05N/A1545N/A
16921CANOEloise1:26:26N/A1521N/A

  Indice de confiance du circuit (moyenne des différences entre CN et score sur la course des 3 à 10 premiers) : 322




 Circuit "Circuit F"

Licence Nom Prénom Temps CN
précédent
Score sur
la course
Différence
18304BEAUDEUXThéo0:23:42N/A0N/A

  Circuit non comptabilisé (moins de 3 coureurs classés).




 Circuit "Circuit G"

Licence Nom Prénom Temps CN
précédent
Score sur
la course
Différence
18284ROESLELaurent0:21:48N/A3400N/A
17171VUILLEMINPauline0:29:41N/A2497N/A
16132GROSJEANCapucine0:33:47N/A2194N/A
16649WYMERKylian0:40:01N/A1852N/A
17074FRANCOISLysa0:44:48N/A1655N/A
13960GROSJEANApolline1:19:39N/A931N/A

  Indice de confiance du circuit (moyenne des différences entre CN et score sur la course des 3 à 10 premiers) : 563






 Retour